Regional Weather Roundup
Issued by NWS

Home | Current Version | Previous Version | Text Only | Print | Product List | Glossary Off
Versions: 1 2 3 4 5 6 7 8 9 10 11 12 13 14 15 16 17 18 19 20 21 22 23 24 25 26 27 28 29 30 31 32 33 34 35 36 37 38 39 40 41 42 43 44 45 46 47 48 49 50

000
ASUS43 KMPX 200910
RWRMN
WEATHER ROUNDUP FOR MINNESOTA
NATIONAL WEATHER SERVICE TWIN CITIES/CHANHASSEN MN
300 AM CST FRI JAN 20 2017


NOTE: "FAIR" INDICATES FEW OR NO CLOUDS BELOW 12,000 FEET WITH NO
SIGNIFICANT WEATHER AND/OR OBSTRUCTIONS TO VISIBILITY. N/A MEANS
CURRENT SKY AND/OR WEATHER CONDITIONS ARE NOT AVAILABLE.

MNZ060>063-068>070-201000-
   Twin Cities Metro

CITY           SKY/WX    TMP DP  RH WIND       PRES   REMARKS
TWIN CITIES    LGT RAIN  35  33  92 SE9       29.65S FOG     WCI  28
ST PAUL        MIX PCPN  35  35 100 SE3       29.67S FOG
CRYSTAL        LGT RAIN  36  33  89 SE8       29.64R FOG
BLAINE         DRIZZLE   37  37 100 SE5       29.65R
LAKEVILLE      DRIZZLE   34  34 100 SE5       29.64S WCI  30
EDEN PRAIRIE   CLOUDY    36  34  92 SE10      29.63S FOG
SOUTH ST PAUL  CLOUDY    36  35  99 CALM      29.65F FOG
LAKE ELMO      MIX PCPN  36  36 100 E3        29.67S
$$
MNZ001>005-007-008-013>017-022>024-027-028-201000-
   Northwest Minnesota

CITY           SKY/WX    TMP DP  RH WIND       PRES   REMARKS
BEMIDJI        CLOUDY    33  33 100 SE7       29.61R FOG     WCI  26
HALLOCK        CLOUDY    34  34 100 S14       29.54S FOG     WCI  24
ROSEAU         CLOUDY    36  30  80 S10       29.58S FOG
WARROAD        CLOUDY    36  30  80 SW6       29.60R FOG
THIEF RVR FALL CLOUDY    35  34  96 SE13      29.59R FOG     WCI  26
CROOKSTON      CLOUDY    36  36 100 S15       29.57S FOG
FOSSTON        CLOUDY    34  32  93 SE7       29.59F FOG     WCI  28
DETROIT LAKES  FOG       34  34 100 SE7       29.59S VSB 1   WCI  28
MOORHEAD       CLOUDY    34  34 100 SE12      29.57S FOG     WCI  25
PARK RAPIDS    FOG       34  32  92 SE3       29.58F VSB 1/4
MAHNOMEN       CLOUDY    35  34  98 SE6       29.58S FOG     WCI  30
$$
MNZ006-009>011-018-025>026-201000-
   North Central Minnesota

CITY           SKY/WX    TMP DP  RH WIND       PRES   REMARKS
BAUDETTE       FOG       35  35 100 S6        29.60R VSB 1/4 WCI  30
FLAG ISLAND    CLOUDY    34  34 100 S8        29.59R FOG     WCI  27
INTL FALLS     MOCLDY    27  25  92 CALM      29.63R FOG
WASKISH        FOG       36  36 100 S3        29.62R VSB 1
BIG FORK       CLOUDY    34  34 100 S5        29.63S FOG     WCI  30
LONGVILLE      CLOUDY    34  32  93 CALM      29.62R FOG
GRAND RAPIDS   CLOUDY    28  27  96 CALM      29.65S FOG
CRANE LAKE     CLEAR     23  21  93 CALM      29.67R FOG
ORR            CLEAR     30  28  93 CALM      29.62S FOG
COOK             N/A     28  28 100 SE3       29.64S FOG
WALKER         FOG       33  32  98 CALM      29.61S VSB 1/2
$$
MNZ012-019>021-037-201000-
   Northeast Minnesota

CITY           SKY/WX    TMP DP  RH WIND       PRES   REMARKS
DULUTH         CLOUDY    35  32  88 SE7       29.66R WCI  29
ELY            CLEAR     27  27 100 CALM      29.64F FOG
HIBBING        FOG       20  20 100 CALM      29.64R VSB 1/4
EVELETH        CLOUDY    20  18  93 CALM      29.66S FOG
DULUTH HARBOR  CLOUDY    34  32  93 CALM      29.70S FOG
TWO HARBORS    HAZE      34  28  80 NE6       29.67S VSB 1/4 WCI  29
SILVER BAY     CLOUDY    27  27 100 N3        29.68R FOG
GRAND MARAIS     N/A     29  28  96 NW3       29.71R
G MARAIS ARPRT FOG       25  21  86 N3        29.66F VSB 1/2
$$
MNZ029>031-032-039>041-046>048-054>057-064-201000-
   West Central Minnesota

CITY           SKY/WX    TMP DP  RH WIND       PRES   REMARKS
FERGUS FALLS   CLOUDY    36  36 100 SE9       29.61F FOG
WHEATON        CLOUDY    39  39 100 SE9       29.58S FOG
MORRIS         FOG       34  34 100 E9        29.57S VSB 1/2 WCI  26
ALEXANDRIA     FOG       33  33 100 SE7       29.59F VSB 1/2 WCI  27
ELBOW LAKE     FOG       33  33 100 SE9       29.59S VSB 1   WCI  26
WADENA         FOG       34  34 100 E6        29.59S VSB 1/4 WCI  29
GLENWOOD       FOG       34  34 100 E6        29.59F VSB 1/2 WCI  29
APPLETON       CLOUDY    36  34  93 SE8       29.57F FOG
BENSON         CLOUDY    36  34  93 S8          N/A
ORTONVILLE     FOG       34  32  93 SE8       29.56S VSB 1/4 WCI  27
MADISON        FOG       36  36 100 SE9       29.57S VSB 3/4
WILLMAR        FOG       34  34 100 SE8       29.62R VSB 3/4 WCI  27
$$
MNZ033>034-036-042>043-049>051-058-059-201000-
   Central Minnesota

CITY           SKY/WX    TMP DP  RH WIND       PRES   REMARKS
ST CLOUD       CLOUDY    34  34 100 SE8       29.62S FOG     WCI  27
SAUK CENTRE    LGT RAIN  33  33 100 E5        29.61S WCI  28
PAYNESVILLE    DRZL/FOG  33  33 100 SE3       29.61S VSB 1/2
AITKIN         CLOUDY    37  32  81 SE3       29.62S
PINE RIVER     FOG       32  32 100 CALM      29.66R VSB 1
BRAINERD       CLOUDY    35  32  88 SE3       29.62S FOG
STAPLES          N/A     34  34 100 CALM      29.61S FOG
LONG PRAIRIE   LGT SNOW  32  32 100 E5        29.61S VSB 3/4 WCI  27
LITTLE FALLS   FOG       34  32  93 SE3       29.62F VSB 1
LITCHFIELD     DRIZZLE   36  34  93 SE7       29.62R
BUFFALO        LGT RAIN  34  33  94 E5        29.64S WCI  30
MAPLE LAKE     RAIN      35  35  99 MISG      29.64S
HUTCHINSON     LGT RAIN  34  35 100 E8        29.63R WCI  28
$$
MNZ037-044-045-052-053-201000-
   East Central Minnesota

CITY           SKY/WX    TMP DP  RH WIND       PRES   REMARKS
PRINCETON      CLOUDY    36  34  93 E5        29.64S FOG
MORA           CLOUDY    34  32  93 SE3       29.66F FOG
CAMBRIDGE      CLOUDY    37  32  81 E5        29.63F HAZE
RUSH CITY      CLOUDY    34  34 100 E3        29.66F FOG
MOOSE LAKE     CLOUDY    36  32  87 CALM      29.64S
HINCKLEY       DRIZZLE   36  36 100 E6        29.66S
CLOQUET        CLOUDY    34  30  86 E3        29.65S FOG
MCGREGOR       CLOUDY    36  32  87 SE6       29.64S
$$
MNZ071>073-080-081-089-090-097-098-201000-
   Southwest Minnesota

CITY           SKY/WX    TMP DP  RH WIND       PRES   REMARKS
MONTEVIDEO     FOG       34  34 100 S7        29.60S VSB 1/2 WCI  28
GRANITE FALLS  FOG       35  35  99 E8        29.60S VSB 1/2 WCI  28
CANBY          FOG       34  34 100 CALM      29.57S VSB 3/4
MARSHALL       FOG       34  34 100 SE7       29.58R VSB 1/4 WCI  28
REDWOOD FALLS  FOG       34  33  96 E6        29.59S VSB 1/4 WCI  29
OLIVIA         FOG       34  32  93 SE7       29.60S VSB 3/4 WCI  28
PIPESTONE      FOG       36  36 100 SW7       29.54S VSB 1/4
WINDOM         FOG       34  34 100 CALM      29.59R VSB 1/4
WORTHINGTON    FOG       35  35 100 S7        29.57S VSB 1/2 WCI  29
JACKSON        FOG       32  32 100 SE5       29.59S VSB 1/4 WCI  27
TRACY          FOG       35  35 100 CALM      29.57S VSB 1/2
SLAYTON        CLOUDY    34  34 100 S3        29.56S FOG
$$
MNZ065>067-074>077-082>085-091>093-201000-
   South Central Minnesota

CITY           SKY/WX    TMP DP  RH WIND       PRES   REMARKS
MANKATO        MIX PCPN  34  33  96 SE10      29.63R FOG     WCI  26
NEW ULM        SNOW      34  34 100 SE5       29.61S VSB 1/2 WCI  30
ST JAMES       FOG       34  34 100 E7        29.62S VSB 3/4 WCI  28
FAIRMONT       LGT RAIN  33  33 100 SE6       29.62R VSB 1/2 WCI  28
GLENCOE        DRIZZLE   35  35 100 E7        29.62S WCI  29
FARIBAULT      DRIZZLE   36  34  93 E8        29.64S
OWATONNA       DRIZZLE   36  34  93 SE9       29.63S
WASECA         CLOUDY    34  34 100 SE9       29.64S FOG     WCI  26
ALBERT LEA     CLOUDY    34  34 100 SE7       29.62S FOG     WCI  28
$$
MNZ078>079-086>088-094>096-201000-
   Southeast Minnesota

CITY           SKY/WX    TMP DP  RH WIND       PRES   REMARKS
ROCHESTER      CLOUDY    33  33 100 SE9       29.64S FOG     WCI  25
RED WING       DRIZZLE   36  34  93 SE6       29.66S
STANTON        CLOUDY    36  34  91 SE5       29.63F FOG
DODGE CENTER   MIX PCPN  34  34 100 CALM      29.63S
WINONA         CLOUDY    34  34 100 SE5       29.68F FOG     WCI  30
AUSTIN         DRIZZLE   34  32  93 SE10      29.62F WCI  26
PRESTON        CLOUDY    33  32  96 E6        29.65R FOG     WCI  27
$$
ABBREVIATIONS USED IN REMARKS
   TC - TEMPERATURES IN CELSIUS
  WCI - WIND CHILL INDEX
   HX - HEAT INDEX
  VSB - VISIBILITY
$$




USA.gov is the U.S. government's official web portal to all federal, state and local government web resources and services.